sat.trackr.live / text

‹ back to catalog

STARLINK-34790

NORAD 65690 · 2025-212Q

PAYLOAD ACTIVE UNKNOWN

§ Identity

Operator
Country
US
Launch date
2025-09-21
Launch site
AFETR
Launch vehicle
Mass (kg)
RCS (m²)

Purposes: comms

External: N2YO · Heavens-Above · Gunter

§ Orbital elements

Epoch: 2026-09-20T00:12:44.722944Z

Period
93.85 min
Inclination
53.1569°
Eccentricity
0.0001241
Mean motion
15.34403002 rev/d
Perigee alt
461.8 km
Apogee alt
463.5 km
Semi-major
6,840.8 km
B*
4.4260e-4
RAAN
160.3220°
Arg perigee
292.9998°
Mean anomaly
67.0874°
Rev number
5,698

§ Raw data

STARLINK-347901 65690U 25212Q   26263.00885096  .00014608  00000+0  44260-3 0  99902 65690  53.1569 160.3220 0001241 292.9998  67.0874 15.34403002 56989

JSON: /api/v1/satellites/65690 · /tle

For live sub-satellite position, see the globe view (requires WebGL).

§ Visibility from observer

Set your observer location to see the next 7 days of passes ≥ 10°. The values pass through the URL so the page stays shareable.

No JS? Fill the form by hand. The geolocation button needs JavaScript.